Temperature
16 16 16 16 16 15 15 15 15 15 15 15 14 14 14 14 14 14 13 13 13 13 12 12 12 12 12 12 12 12 12 12 12 12 12 12 11 11 11 11 10 10 10
16 16 16 15 15 15 15 15 15 14 14 14 14 14 14 14 14 13 13 13 13 13 12 12 12 12 12 12 12 12 12 12 12 12 11 11 11 11 11 10 10 10 9
16 16 15 15 15 15 15 14 14 14 14 14 14 14 14 13 13 13 13 13 12 12 12 12 12 12 11 11 11 11 11 11 11 11 11 11 11 10 10 10 10 9 9
15 15 15 15 15 14 14 14 14 14 14 14 14 13 13 13 13 13 13 12 12 12 12 12 11 11 11 11 11 10 11 11 11 11 10 10 10 10 10 9 9 9 9
15 15 15 15 14 14 14 14 14 13 13 13 13 13 13 13 13 12 12 12 12 12 12 12 11 11 11 11 10 10 10 10 10 10 10 10 9 9 9 9 8 8 8
14 14 14 14 14 13 13 13 13 13 13 12 12 12 12 12 12 12 12 12 12 12 12 12 11 11 11 10 10 10 9 9 9 9 9 9 9 8 8 8 7 7 7
14 14 14 14 13 13 13 13 12 12 12 12 12 12 12 12 12 12 12 12 12 12 12 12 11 11 11 10 10 10 9 9 8 8 8 8 8 8 7 7 7 6 6
14 14 14 13 13 13 13 12 12 12 12 12 11 11 11 12 13 13 13 12 12 12 12 12 11 11 11 10 10 9 9 8 8 8 7 7 7 7 7 6 6 6 5
14 14 13 13 13 13 13 13 12 12 12 12 11 11 11 11 11 12 12 12 12 12 12 11 11 11 10 10 10 9 8 8 8 7 7 7 6 6 6 6 5 5 5
14 14 13 13 13 13 13 13 12 12 12 11 11 11 11 11 11 11 11 11 11 11 11 11 11 10 10 10 9 9 8 8 7 7 7 6 6 6 5 5 5 5 5
14 13 13 13 13 13 13 13 12 12 12 11 11 11 11 11 10 10 10 10 11 11 10 10 10 10 9 9 9 8 8 7 7 6 6 6 5 5 5 5 4 4 4
13 13 13 13 13 13 13 12 12 12 11 11 11 11 10 10 10 10 10 10 10 10 10 10 9 9 9 9 8 8 7 7 6 6 5 5 5 4 4 4 4 4 4
13 13 13 13 13 12 12 12 12 11 11 11 11 10 10 10 10 10 9 9 9 9 9 9 9 9 8 8 8 7 7 6 6 5 5 4 4 4 4 4 3 3 3
12 12 12 12 12 12 11 11 11 11 11 10 10 10 10 9 9 9 9 8 8 8 8 8 8 8 8 7 7 7 6 6 5 5 4 4 3 3 3 3 3 3 2
12 12 12 12 11 11 11 11 10 10 10 10 9 9 9 9 9 8 8 8 8 7 7 7 7 7 7 6 6 6 5 5 4 4 3 3 3 3 3 2 2 2 2
11 11 11 11 10 10 10 10 9 9 9 9 9 8 8 8 8 8 7 7 7 7 6 6 6 5 5 5 5 5 4 4 4 3 3 2 2 2 2 2 1 1 1
10 10 10 10 9 9 9 9 9 8 8 8 8 7 7 7 7 7 7 7 6 6 6 5 5 4 4 4 4 4 3 3 3 2 2 2 1 1 1 1 0 0 -0
9 9 9 9 8 8 8 8 8 7 7 7 7 7 6 6 6 6 6 6 5 5 5 4 4 4 3 3 3 3 2 2 2 1 1 1 1 0 0 -0 -0 -1 -1
8 8 8 7 7 7 7 7 7 7 6 6 6 6 6 6 5 5 5 5 5 4 4 3 3 3 2 2 2 2 1 1 1 1 0 0 -0 -0 -1 -1 -1 -1 -1
7 7 7 7 7 7 6 6 6 6 6 5 5 5 5 5 4 4 4 4 3 3 3 2 2 2 1 1 1 0 0 0 -0 -0 -0 -1 -1 -1 -1 -2 -2 -2 -2
6 6 6 6 6 6 6 5 5 5 5 4 4 4 4 4 3 3 3 3 2 2 2 1 1 1 0 -0 -0 -0 -1 -1 -1 -1 -1 -2 -2 -2 -2 -2 -2 -2 -2
5 5 5 5 5 5 5 4 4 4 4 3 3 3 3 2 2 2 2 2 1 1 1 0 0 -0 -1 -1 -1 -2 -2 -2 -2 -2 -2 -2 -2 -2 -2 -2 -2 -2 -2
4 4 4 4 4 4 4 3 3 3 3 2 2 2 2 2 1 1 1 1 0 -0 -0 -1 -1 -1 -2 -2 -2 -2 -3 -3 -3 -3 -3 -2 -2 -2 -3 -3 -3 -3 -3
3 3 3 3 3 3 2 2 2 2 2 2 1 1 1 1 1 0 0 -0 -1 -1 -1 -1 -2 -2 -3 -3 -3 -4 -4 -4 -4 -4 -4 -3 -3 -3 -3 -3 -3 -3 -3
2 2 2 2 2 2 1 1 1 1 1 1 1 1 0 0 -0 -1 -1 -1 -1 -2 -2 -2 -3 -3 -3 -4 -4 -4 -4 -5 -4 -4 -4 -4 -4 -3 -3 -2 -3 -3 -4
1 1 1 1 1 1 1 0 0 1 0 0 -0 -0 -1 -1 -1 -2 -2 -2 -2 -2 -3 -3 -3 -4 -4 -4 -4 -5 -5 -5 -5 -5 -5 -5 -5 -5 -5 -3 -3 -4 -4
Wind_Speed
6 7 6 7 7 7 6 5 4 4 3 3 4 5 5 6 7 8 9 10 10 9 8 8 7 7 6 6 5 4 4 3 3 3 3 2 3 3 4 4 5 5 5
9 7 6 7 8 9 8 7 6 4 3 3 4 6 7 8 9 10 11 12 12 12 11 11 10 10 9 8 7 7 6 5 4 3 3 2 1 1 2 2 3 3 4
12 10 7 6 9 10 9 6 5 3 3 3 4 6 7 8 9 11 13 13 13 14 14 14 13 12 12 11 10 9 8 7 6 5 4 3 2 1 1 0 1 2 3
14 11 7 7 11 10 8 5 3 3 3 3 4 4 5 7 9 11 12 14 14 15 16 17 16 15 15 14 13 12 11 10 9 8 6 5 4 3 3 2 2 2 2
15 12 9 9 11 9 7 5 4 4 4 5 5 4 4 5 7 9 10 14 16 16 17 18 18 18 17 16 16 15 14 13 12 11 9 8 7 6 5 5 4 4 4
15 13 10 10 10 6 5 5 6 5 4 4 4 4 5 5 6 6 9 12 15 17 18 18 18 18 19 19 18 17 16 15 14 13 11 10 9 8 7 7 6 6 6
13 12 8 7 8 7 8 8 6 5 5 3 2 3 4 6 7 6 8 8 10 14 15 16 16 16 16 18 19 19 18 17 16 15 14 12 11 10 9 9 8 8 7
11 11 9 6 7 7 8 8 6 4 4 5 4 2 4 4 5 6 5 6 7 8 10 13 14 15 15 15 16 18 18 17 17 16 15 14 13 12 11 11 10 10 9
9 10 9 8 7 8 8 9 9 8 6 6 6 5 4 6 4 3 3 4 4 4 5 8 11 13 13 14 14 15 17 17 17 16 15 15 15 14 13 12 11 11 10
6 7 7 8 7 7 8 8 9 8 7 6 5 6 6 4 4 4 2 2 3 4 4 5 7 9 11 12 13 14 15 15 16 16 16 16 15 15 15 13 12 11 11
3 4 5 4 5 5 7 7 7 8 8 8 6 5 6 5 5 5 6 3 2 2 2 2 4 5 7 9 11 12 14 15 16 16 17 17 16 15 14 13 12 11 11
2 2 3 3 3 4 5 6 6 7 7 8 7 6 5 4 5 6 9 6 5 2 1 1 2 3 5 7 9 10 12 14 15 15 16 16 15 14 13 11 10 9 9
2 3 3 3 3 4 4 4 5 5 6 6 7 6 6 6 4 4 5 5 4 2 1 1 1 2 3 4 6 8 10 12 13 14 14 14 11 8 8 9 9 9 9
2 2 2 2 2 2 2 3 3 4 3 4 5 5 4 4 3 4 4 4 4 3 2 3 0 1 2 2 4 5 7 9 10 12 12 11 9 7 8 8 9 10 9
1 1 1 1 1 1 1 1 2 2 2 2 2 2 2 1 1 2 3 4 4 4 4 2 1 1 2 2 1 1 2 5 7 7 8 8 8 8 7 8 9 9 9
1 1 1 1 1 1 1 1 1 1 2 1 1 2 1 1 1 1 0 1 2 4 3 1 1 1 2 1 1 1 0 2 3 4 5 6 7 7 7 8 9 9 10
3 3 3 3 3 3 3 3 3 3 3 3 3 3 3 2 2 2 2 1 1 1 2 1 2 2 2 2 3 3 2 1 3 4 6 6 7 7 8 9 10 11 11
4 4 4 4 4 4 4 4 4 4 4 4 4 4 4 4 4 3 3 3 2 2 1 1 1 2 2 1 2 2 2 2 3 4 6 6 7 8 9 10 10 11 11
5 5 5 5 5 5 5 5 5 5 6 5 5 5 4 5 5 4 4 4 3 3 2 2 2 1 1 1 1 1 2 2 3 5 5 6 7 8 9 10 11 12 12
5 5 6 6 5 6 6 6 6 7 7 7 6 6 5 5 5 4 4 4 3 4 3 3 2 1 1 1 1 1 2 2 2 4 5 5 7 9 10 10 11 11 12
5 5 6 6 5 5 5 6 6 7 7 7 7 6 5 6 7 5 4 3 3 3 3 2 2 1 1 1 1 1 1 2 2 1 2 4 6 7 9 9 10 11 12
5 5 5 5 5 5 8 9 8 6 6 7 6 6 5 6 7 8 8 6 4 3 2 1 1 0 1 1 0 0 1 2 3 2 2 4 3 4 7 9 11 12 13
5 5 5 5 6 7 9 10 10 7 6 6 5 4 4 5 6 5 6 7 6 6 3 2 2 2 2 2 1 1 1 2 3 2 2 4 2 4 7 10 12 13 13
4 4 4 5 5 6 9 10 10 7 6 5 4 4 4 3 2 4 4 4 4 4 3 1 2 2 3 3 3 2 2 2 3 3 2 3 3 3 5 10 12 10 8
4 3 4 4 5 5 7 8 8 5 5 4 3 3 3 2 2 4 3 2 2 3 4 3 2 2 3 3 2 1 0 1 3 2 1 2 3 4 4 4 7 7 7
4 4 4 3 3 3 5 6 7 4 4 3 2 2 2 1 2 2 2 1 1 2 1 2 3 4 4 4 2 1 2 2 2 3 1 1 2 3 5 3 3 6 9
Wind_Direction
172 176 180 183 186 187 189 188 189 193 207 216 218 219 226 231 235 235 236 235 233 230 228 221 216 212 208 202 196 186 176 167 153 137 119 98 81 71 65 57 51 48 46
183 184 188 194 200 203 205 206 208 208 221 229 236 232 234 239 242 239 238 239 236 232 231 231 228 223 221 218 213 206 201 199 191 184 176 160 129 80 59 50 42 32 27
192 192 194 202 212 212 209 210 217 219 230 236 245 242 237 239 240 239 238 238 238 236 233 235 234 230 227 225 222 217 213 212 211 209 208 204 203 212 245 331 5 3 360
199 195 198 210 216 211 204 201 199 214 232 237 248 250 242 241 240 240 238 237 236 235 235 236 236 235 232 230 229 225 219 217 217 217 219 221 223 231 243 254 271 294 313
204 201 205 213 211 206 206 208 206 203 223 233 241 250 248 240 241 239 236 236 235 235 235 236 237 236 234 234 235 233 227 221 218 218 221 224 229 235 243 251 260 270 282
206 205 209 211 204 202 209 210 213 209 216 223 240 257 255 247 239 232 234 237 236 236 236 237 237 238 236 235 237 239 236 230 222 220 222 225 229 235 244 252 258 264 270
203 203 209 206 202 209 214 209 205 212 220 191 211 281 274 246 240 236 231 232 236 237 236 236 236 236 237 236 237 240 241 239 232 225 223 225 228 233 242 249 256 262 268
206 206 206 205 204 211 215 209 200 197 206 182 183 217 286 303 264 240 229 232 238 236 236 237 236 236 236 236 237 239 241 243 241 232 227 227 229 234 243 249 254 261 265
210 210 211 210 207 209 218 214 206 205 217 209 200 194 213 241 282 279 238 236 237 230 236 238 236 237 237 236 237 238 238 238 240 239 235 233 232 236 242 248 252 257 263
207 211 212 211 211 212 218 218 211 212 212 221 214 224 227 206 223 278 271 246 235 237 239 236 238 237 236 234 234 234 232 231 236 241 245 243 241 241 244 246 250 256 261
211 213 214 212 216 218 222 221 215 216 218 223 213 205 225 233 229 241 265 260 256 243 242 240 240 239 235 233 232 230 230 233 237 243 248 249 246 248 253 256 255 260 264
216 223 226 224 227 227 228 230 225 222 226 228 225 211 203 204 211 220 244 245 246 240 225 246 249 247 238 233 233 231 230 234 238 245 250 252 255 259 262 267 267 270 275
226 241 231 234 236 241 238 233 227 228 227 227 228 227 223 226 210 208 233 245 239 232 238 253 276 272 255 238 235 231 232 236 240 244 250 256 262 270 278 283 282 287 286
235 250 239 238 250 256 247 230 227 227 223 224 228 224 224 229 219 214 216 222 245 242 238 247 329 326 300 265 245 229 234 239 243 247 255 261 270 278 281 281 283 284 287
247 270 255 248 253 243 231 208 210 213 205 217 223 215 213 218 204 224 221 214 224 250 247 213 227 12 356 330 289 242 240 250 254 259 265 272 279 281 276 277 278 280 281
51 60 54 60 61 57 75 104 103 96 111 97 103 111 105 95 97 88 173 217 219 227 237 121 87 30 8 9 20 63 338 276 278 278 278 281 281 277 279 280 281 280 278
50 58 63 67 66 57 60 80 79 82 93 82 76 93 85 75 84 69 66 68 55 199 220 117 63 35 36 40 32 49 56 17 325 291 281 280 277 278 279 280 279 277 276
56 61 70 72 68 64 61 77 86 83 91 89 82 86 80 80 75 63 68 66 54 44 142 156 77 41 40 37 36 38 36 17 345 307 293 290 288 285 283 281 280 279 279
62 60 68 73 71 72 73 75 84 85 83 82 82 85 83 87 79 70 70 69 58 53 63 107 96 58 46 36 38 26 26 7 345 324 308 300 298 294 290 286 283 282 281
71 68 70 72 72 74 77 81 87 88 85 78 74 77 81 91 98 93 81 76 75 70 67 83 87 66 52 30 53 20 347 346 326 322 315 310 308 305 300 293 288 285 282
78 78 80 79 80 82 87 93 91 93 90 83 72 67 71 85 98 100 99 97 93 85 82 83 85 60 26 9 357 352 321 326 309 312 318 304 303 300 298 296 292 286 279
80 80 78 80 77 85 100 102 103 93 91 90 83 70 65 62 71 76 81 84 89 95 105 111 106 137 251 247 235 297 329 356 321 320 325 295 282 280 285 287 287 285 281
88 84 80 81 81 89 98 101 104 98 93 89 86 78 70 64 62 61 66 61 49 51 76 133 159 209 223 220 196 259 260 245 259 280 322 290 285 278 280 284 290 287 283
100 94 88 86 87 93 99 102 103 94 89 82 81 84 80 52 67 92 82 58 38 24 29 84 175 217 228 222 202 201 224 270 276 266 221 273 296 281 287 292 295 290 287
111 102 98 94 92 95 104 110 109 100 91 77 66 69 81 53 57 84 92 71 27 353 8 26 21 336 319 306 263 134 128 322 308 294 232 250 300 305 296 290 302 305 301
128 120 107 100 104 104 114 118 119 112 101 84 57 40 43 32 13 63 117 122 309 296 325 359 7 3 360 353 357 152 178 197 259 287 273 259 296 332 316 293 282 288 289
Height
1561 1562 1564 1565 1567 1568 1570 1571 1571 1572 1573 1573 1574 1575 1575 1576 1576 1576 1577 1577 1577 1577 1577 1577 1576 1576 1575 1575 1574 1574 1573 1573 1572 1572 1571 1571 1570 1570 1569 1568 1568 1567 1566
1559 1561 1562 1564 1565 1567 1568 1569 1570 1570 1571 1572 1572 1573 1573 1574 1574 1574 1575 1575 1575 1575 1575 1575 1575 1574 1574 1573 1573 1572 1572 1571 1571 1571 1570 1570 1569 1569 1568 1567 1567 1566 1566
1557 1559 1560 1562 1564 1565 1566 1567 1568 1568 1569 1569 1570 1570 1571 1571 1571 1572 1572 1572 1573 1573 1573 1573 1573 1572 1572 1572 1571 1570 1570 1570 1569 1569 1569 1568 1568 1567 1567 1566 1565 1565 1564
1555 1556 1558 1559 1561 1562 1563 1564 1565 1565 1566 1566 1567 1568 1568 1568 1568 1568 1569 1569 1569 1569 1570 1570 1570 1570 1569 1569 1569 1568 1568 1567 1567 1567 1566 1566 1565 1565 1565 1564 1564 1563 1563
1552 1553 1555 1557 1558 1559 1560 1561 1561 1562 1563 1563 1564 1564 1564 1564 1564 1564 1564 1565 1565 1565 1565 1566 1566 1566 1566 1566 1566 1565 1565 1564 1564 1563 1563 1563 1563 1562 1562 1562 1561 1561 1560
1549 1550 1552 1553 1555 1555 1556 1557 1558 1559 1559 1560 1560 1559 1559 1559 1559 1559 1560 1560 1560 1560 1561 1561 1561 1561 1561 1562 1562 1562 1561 1561 1560 1559 1559 1559 1559 1559 1559 1559 1558 1558 1558
1546 1547 1548 1549 1550 1551 1552 1553 1554 1554 1555 1556 1555 1555 1554 1554 1554 1554 1555 1555 1555 1555 1555 1556 1556 1556 1556 1557 1557 1557 1557 1557 1556 1555 1555 1555 1555 1555 1555 1555 1555 1555 1555
1542 1543 1544 1545 1546 1547 1548 1549 1549 1550 1550 1551 1551 1551 1549 1549 1548 1549 1549 1549 1550 1550 1550 1550 1551 1551 1551 1551 1551 1551 1552 1552 1552 1551 1550 1550 1550 1550 1550 1551 1551 1551 1551
1537 1538 1539 1540 1541 1542 1543 1544 1544 1545 1545 1546 1547 1547 1546 1543 1543 1543 1543 1544 1544 1544 1545 1545 1545 1545 1545 1545 1545 1545 1545 1546 1546 1546 1545 1545 1545 1545 1545 1545 1546 1546 1546
1532 1533 1534 1535 1536 1536 1537 1538 1539 1539 1539 1539 1540 1541 1541 1540 1539 1537 1538 1538 1539 1539 1539 1539 1539 1539 1539 1538 1538 1539 1539 1539 1539 1540 1540 1540 1539 1540 1540 1540 1540 1541 1541
1527 1528 1529 1529 1530 1530 1531 1532 1532 1533 1533 1533 1534 1534 1534 1534 1534 1533 1531 1532 1532 1533 1533 1533 1533 1532 1532 1532 1532 1532 1532 1532 1533 1533 1533 1534 1534 1534 1534 1534 1534 1534 1535
1521 1522 1523 1523 1524 1524 1525 1525 1526 1526 1526 1527 1527 1527 1528 1528 1527 1527 1525 1524 1525 1526 1526 1526 1526 1526 1526 1525 1525 1525 1524 1525 1525 1525 1526 1527 1528 1528 1528 1529 1529 1529 1529
1515 1516 1517 1517 1517 1518 1518 1518 1519 1519 1520 1520 1520 1520 1521 1521 1521 1521 1520 1519 1518 1518 1519 1519 1520 1519 1519 1518 1518 1518 1518 1518 1518 1519 1520 1521 1521 1521 1522 1522 1523 1523 1523
1509 1510 1510 1510 1511 1511 1512 1512 1512 1512 1513 1513 1513 1514 1514 1514 1515 1515 1515 1514 1512 1512 1512 1513 1513 1513 1512 1512 1511 1511 1511 1511 1511 1512 1513 1514 1515 1515 1515 1516 1516 1517 1516
1504 1504 1504 1504 1505 1505 1505 1505 1505 1506 1506 1506 1507 1507 1507 1508 1508 1508 1509 1509 1509 1506 1505 1506 1507 1506 1506 1506 1505 1505 1505 1505 1505 1506 1507 1508 1508 1509 1509 1509 1509 1510 1509
1498 1498 1498 1499 1499 1499 1499 1499 1500 1500 1500 1500 1501 1501 1502 1502 1502 1502 1503 1503 1503 1502 1501 1500 1501 1501 1500 1500 1500 1499 1499 1500 1500 1500 1501 1501 1502 1502 1503 1503 1503 1503 1503
1493 1493 1493 1494 1494 1494 1494 1494 1495 1495 1495 1495 1496 1496 1497 1497 1497 1497 1497 1497 1497 1497 1496 1496 1495 1495 1495 1495 1495 1494 1494 1494 1494 1495 1495 1495 1496 1496 1496 1496 1496 1496 1496
1489 1489 1489 1489 1490 1490 1490 1490 1490 1491 1491 1491 1492 1492 1492 1492 1492 1492 1492 1492 1492 1492 1492 1491 1491 1491 1490 1490 1490 1490 1490 1489 1489 1490 1490 1490 1490 1490 1490 1490 1490 1490 1489
1485 1485 1485 1486 1486 1486 1487 1487 1487 1487 1487 1488 1488 1488 1488 1489 1488 1489 1488 1488 1488 1488 1488 1487 1487 1487 1486 1486 1486 1485 1485 1485 1485 1485 1485 1485 1484 1484 1484 1484 1483 1483 1483
1482 1482 1482 1482 1483 1483 1483 1483 1484 1484 1484 1484 1485 1485 1485 1485 1485 1485 1485 1485 1485 1485 1484 1484 1484 1483 1483 1482 1482 1482 1481 1481 1480 1480 1480 1479 1479 1478 1478 1478 1477 1477 1477
1479 1479 1480 1480 1480 1480 1481 1481 1481 1481 1481 1482 1482 1482 1482 1483 1482 1482 1482 1482 1482 1482 1481 1481 1481 1480 1480 1479 1479 1478 1477 1476 1476 1476 1475 1475 1474 1474 1473 1473 1472 1471 1471
1477 1477 1477 1478 1478 1478 1478 1478 1479 1479 1479 1480 1480 1480 1480 1480 1480 1480 1480 1480 1480 1480 1479 1479 1478 1478 1477 1476 1475 1475 1474 1473 1472 1472 1471 1471 1470 1469 1468 1467 1467 1466 1465
1475 1475 1476 1476 1476 1476 1476 1477 1477 1477 1478 1478 1478 1478 1479 1479 1478 1478 1478 1478 1477 1477 1477 1476 1476 1475 1474 1473 1472 1471 1471 1470 1469 1468 1467 1465 1466 1465 1464 1462 1461 1461 1460
1474 1474 1474 1474 1475 1475 1475 1475 1476 1476 1476 1476 1477 1477 1477 1477 1476 1476 1476 1475 1475 1474 1474 1473 1473 1472 1471 1470 1469 1469 1468 1467 1466 1465 1464 1462 1461 1460 1459 1458 1456 1455 1455
1472 1472 1473 1473 1474 1474 1474 1474 1474 1475 1475 1475 1475 1475 1475 1475 1474 1474 1474 1473 1472 1472 1471 1470 1470 1469 1468 1467 1466 1466 1465 1464 1462 1461 1460 1458 1456 1454 1453 1452 1451 1451 1450
1470 1471 1472 1472 1473 1473 1473 1473 1473 1473 1473 1474 1474 1474 1473 1473 1472 1472 1471 1470 1470 1469 1468 1467 1467 1466 1465 1464 1464 1463 1462 1461 1459 1457 1456 1455 1453 1451 1448 1447 1447 1446 1445